Location: *
(10.5081°N, 66.9194°W)
Time: 04:35:57
(UTC+00:00)

Cosmos 1939 Rocket - Pass Details

Date: 30 March 2020
Orbit: 533 x 584 km, 97.4° (Epoch: 25 May)

Event Time Altitude Azimuth Distance (km) Brightness Sun altitude
Rises 22:48:38 0° 147° (SSE) 2,769 6.0 -3.3°
Reaches altitude 10° 22:51:03 10° 134° (SE) 1,863 5.1 -3.9°
Maximum altitude 22:54:25 26° 77° (ENE) 1,133 3.9 -4.7°
Drops below altitude 10° 22:57:44 10° 21° (NNE) 1,836 5.3 -5.6°
Sets 23:00:06 0° 8° (N) 2,720 6.3 -6.1°
